When you browse on this site, cookies collect data to enhance your experience and personalize the content and advertising you see.
Visit our Privacy Policy to learn more. By continuing to use the site, you agree to this use of cookies and data.
EN

Hourly Weather Posukhiv

Today, 15 August, Saturday

Time Temperature Precipitation Wind Pressure Humidity
00:00 +14°C° 0 mm 3 mps 738 mmHg 70%
01:00 +13°C° 0 mm 3 mps 738 mmHg 70%
02:00 +13°C° 0 mm 3 mps 738 mmHg 69%
03:00 +13°C° 0 mm 4 mps 737 mmHg 67%
04:00 +13°C° 0 mm 4 mps 737 mmHg 65%
05:00 +13°C° 0 mm 4 mps 737 mmHg 63%
06:00 +15°C° 0 mm 4 mps 737 mmHg 61%
07:00 +16°C° 0 mm 5 mps 738 mmHg 59%
08:00 +17°C° 0 mm 5 mps 738 mmHg 57%
09:00 +19°C° 0 mm 5 mps 738 mmHg 54%
10:00 +21°C° 0 mm 5 mps 738 mmHg 51%
11:00 +22°C° 0 mm 5 mps 738 mmHg 48%
12:00 +23°C° 0 mm 5 mps 738 mmHg 47%
13:00 +25°C° 0 mm 5 mps 738 mmHg 45%
14:00 +26°C° 0 mm 4 mps 737 mmHg 44%
15:00 +26°C° 0 mm 4 mps 737 mmHg 45%
16:00 +25°C° 0 mm 4 mps 737 mmHg 46%
17:00 +25°C° 0 mm 5 mps 737 mmHg 47%
18:00 +22°C° 0 mm 4 mps 737 mmHg 49%
19:00 +21°C° 0 mm 4 mps 737 mmHg 51%
20:00 +19°C° 0 mm 4 mps 737 mmHg 53%
21:00 +18°C° 0 mm 4 mps 737 mmHg 51%
22:00 +18°C° 0 mm 4 mps 737 mmHg 50%
23:00 +18°C° 0 mm 4 mps 737 mmHg 48%

Tomorrow, 16 August, Sunday

Time Temperature Precipitation Wind Pressure Humidity
00:00 +18°C° 0 mm 4 mps 737 mmHg 48%
01:00 +17°C° 0 mm 4 mps 737 mmHg 48%
02:00 +17°C° 0 mm 4 mps 737 mmHg 48%
03:00 +17°C° 0 mm 3 mps 737 mmHg 50%
04:00 +17°C° 0 mm 3 mps 737 mmHg 53%
05:00 +16°C° 0 mm 3 mps 737 mmHg 55%
06:00 +17°C° 0 mm 3 mps 737 mmHg 55%
07:00 +18°C° 0 mm 3 mps 738 mmHg 54%
08:00 +19°C° 0 mm 3 mps 738 mmHg 54%
09:00 +21°C° 0 mm 3 mps 738 mmHg 51%
10:00 +24°C° 0 mm 3 mps 738 mmHg 47%
11:00 +25°C° 0 mm 2 mps 738 mmHg 44%
12:00 +26°C° 0 mm 2 mps 738 mmHg 41%
13:00 +27°C° 0 mm 2 mps 738 mmHg 39%
14:00 +27°C° 0 mm 2 mps 738 mmHg 36%
15:00 +27°C° 0 mm 2 mps 738 mmHg 37%
16:00 +27°C° 0 mm 2 mps 738 mmHg 38%
17:00 +27°C° 0 mm 2 mps 737 mmHg 39%
18:00 +25°C° 0 mm 2 mps 737 mmHg 43%
19:00 +23°C° 0 mm 2 mps 738 mmHg 48%
20:00 +19°C° 0 mm 2 mps 738 mmHg 52%
21:00 +19°C° 0 mm 2 mps 738 mmHg 52%
22:00 +18°C° 0 mm 2 mps 738 mmHg 52%
23:00 +17°C° 0 mm 2 mps 738 mmHg 52%

Day after tomorrow, 17 August, Monday

Time Temperature Precipitation Wind Pressure Humidity
00:00 +16°C° 0 mm 3 mps 738 mmHg 53%
01:00 +16°C° 0 mm 3 mps 738 mmHg 54%
02:00 +16°C° 0 mm 3 mps 738 mmHg 55%
03:00 +15°C° 0 mm 2 mps 737 mmHg 55%
04:00 +15°C° 0 mm 2 mps 737 mmHg 56%
05:00 +15°C° 0 mm 2 mps 737 mmHg 56%
06:00 +17°C° 0 mm 2 mps 737 mmHg 54%
07:00 +19°C° 0 mm 2 mps 737 mmHg 51%
08:00 +21°C° 0 mm 3 mps 738 mmHg 49%
09:00 +24°C° 0 mm 3 mps 737 mmHg 45%
10:00 +26°C° 0 mm 4 mps 737 mmHg 40%
11:00 +28°C° 0 mm 4 mps 737 mmHg 36%
12:00 +28°C° 0 mm 4 mps 737 mmHg 35%
13:00 +29°C° 0 mm 4 mps 737 mmHg 33%
14:00 +30°C° 0 mm 4 mps 737 mmHg 31%
15:00 +30°C° 0 mm 4 mps 736 mmHg 32%
16:00 +29°C° 0 mm 3 mps 736 mmHg 33%
17:00 +29°C° 0 mm 3 mps 735 mmHg 33%
18:00 +27°C° 0 mm 2 mps 735 mmHg 36%
19:00 +25°C° 0 mm 2 mps 735 mmHg 38%
20:00 +21°C° 0 mm 2 mps 735 mmHg 41%
21:00 +20°C° 0 mm 2 mps 735 mmHg 42%
22:00 +20°C° 0 mm 2 mps 735 mmHg 43%
23:00 +19°C° 0 mm 2 mps 735 mmHg 44%

18 August, Tuesday

Time Temperature Precipitation Wind Pressure Humidity
00:00 +18°C° 0 mm 3 mps 735 mmHg 44%
01:00 +18°C° 0 mm 3 mps 735 mmHg 44%
02:00 +17°C° 0 mm 3 mps 735 mmHg 44%
03:00 +17°C° 0 mm 3 mps 734 mmHg 48%
04:00 +16°C° 0 mm 3 mps 734 mmHg 51%
05:00 +16°C° 0 mm 3 mps 734 mmHg 54%
06:00 +18°C° 0 mm 3 mps 734 mmHg 53%
07:00 +20°C° 0 mm 4 mps 734 mmHg 51%
08:00 +22°C° 0 mm 4 mps 734 mmHg 49%
09:00 +25°C° 0 mm 5 mps 734 mmHg 44%
10:00 +27°C° 0 mm 6 mps 734 mmHg 38%
11:00 +29°C° 0 mm 6 mps 734 mmHg 33%
12:00 +30°C° 0 mm 6 mps 734 mmHg 32%
13:00 +32°C° 0 mm 5 mps 733 mmHg 30%
14:00 +32°C° 0 mm 5 mps 733 mmHg 29%
15:00 +32°C° 0 mm 4 mps 733 mmHg 30%
16:00 +32°C° 0 mm 4 mps 732 mmHg 32%
17:00 +31°C° 0 mm 3 mps 732 mmHg 33%
18:00 +29°C° 0 mm 3 mps 732 mmHg 34%
19:00 +26°C° 0 mm 3 mps 732 mmHg 35%
20:00 +24°C° 0 mm 3 mps 732 mmHg 36%
21:00 +22°C° 0 mm 3 mps 732 mmHg 37%
22:00 +22°C° 0 mm 3 mps 732 mmHg 37%
23:00 +21°C° 0 mm 4 mps 732 mmHg 37%

19 August, Wednesday

Time Temperature Precipitation Wind Pressure Humidity
00:00 +21°C° 0 mm 4 mps 731 mmHg 41%
01:00 +20°C° 0 mm 4 mps 731 mmHg 45%
02:00 +19°C° 0 mm 4 mps 731 mmHg 50%
03:00 +19°C° 0 mm 3 mps 731 mmHg 53%
04:00 +18°C° 0 mm 3 mps 731 mmHg 56%
05:00 +18°C° 0 mm 3 mps 730 mmHg 59%
06:00 +19°C° 0 mm 3 mps 731 mmHg 58%
07:00 +20°C° 0 mm 3 mps 731 mmHg 56%
08:00 +22°C° 0 mm 3 mps 731 mmHg 55%
09:00 +25°C° 0 mm 2 mps 731 mmHg 52%
10:00 +26°C° 0 mm 2 mps 731 mmHg 50%
11:00 +28°C° 0 mm 2 mps 732 mmHg 47%
12:00 +29°C° 0 mm 2 mps 731 mmHg 46%
13:00 +29°C° 0 mm 2 mps 731 mmHg 44%
14:00 +30°C° 0 mm 2 mps 731 mmHg 43%
15:00 +29°C° 0 mm 2 mps 731 mmHg 46%
16:00 +28°C° 0 mm 3 mps 731 mmHg 49%
17:00 +28°C° 0 mm 3 mps 731 mmHg 53%
18:00 +26°C° 0.2 mm 2 mps 731 mmHg 60%
19:00 +24°C° 0.2 mm 2 mps 731 mmHg 67%
20:00 +22°C° 0.2 mm 1 mps 731 mmHg 75%
21:00 +21°C° 0.2 mm 1 mps 731 mmHg 78%
22:00 +20°C° 0.2 mm 1 mps 731 mmHg 81%
23:00 +20°C° 0.2 mm 1 mps 731 mmHg 84%

20 August, Thursday

Time Temperature Precipitation Wind Pressure Humidity
00:00 +20°C° 0.3 mm 1 mps 731 mmHg 85%
01:00 +19°C° 0.3 mm 1 mps 731 mmHg 87%
02:00 +19°C° 0.3 mm 1 mps 731 mmHg 88%
03:00 +19°C° 0.3 mm 1 mps 731 mmHg 89%
04:00 +19°C° 0.3 mm 1 mps 731 mmHg 90%
05:00 +19°C° 0.3 mm 1 mps 731 mmHg 91%
06:00 +18°C° 0.6 mm 2 mps 731 mmHg 90%
07:00 +19°C° 0.6 mm 2 mps 732 mmHg 89%
08:00 +19°C° 0.6 mm 3 mps 732 mmHg 88%
09:00 +19°C° 0.1 mm 2 mps 732 mmHg 87%
10:00 +20°C° 0.1 mm 2 mps 732 mmHg 85%
11:00 +20°C° 0.1 mm 2 mps 733 mmHg 83%
12:00 +21°C° 0.1 mm 2 mps 733 mmHg 78%
13:00 +23°C° 0.1 mm 2 mps 733 mmHg 74%
14:00 +24°C° 0.1 mm 1 mps 733 mmHg 69%
15:00 +24°C° 0.2 mm 1 mps 733 mmHg 68%
16:00 +24°C° 0.2 mm 1 mps 733 mmHg 66%
17:00 +24°C° 0.2 mm 1 mps 733 mmHg 65%
18:00 +23°C° 0.2 mm 1 mps 733 mmHg 71%
19:00 +21°C° 0.2 mm 1 mps 733 mmHg 78%
20:00 +20°C° 0.2 mm 1 mps 734 mmHg 85%
21:00 +19°C° 0 mm 1 mps 734 mmHg 86%
22:00 +19°C° 0 mm 1 mps 734 mmHg 87%
23:00 +18°C° 0 mm 2 mps 734 mmHg 88%
Show more